Change the Weather History Date:

Monday, March 11, 2013

  Actual Average Record
Temperature  
Mean Temperature 39 °F -  
Max Temperature 50 °F 52 °F 82 °F (2014)
Min Temperature 28 °F 31 °F 15 °F (1998)
Degree Days  
Heating Degree Days 26    
Moisture  
Dew Point 20 °F    
Average Humidity 56    
Maximum Humidity 80    
Minimum Humidity 23    
Precipitation  
Precipitation 0.00 in - - ()
Sea Level Pressure  
Sea Level Pressure 30.01 in    
Wind  
Wind Speed 10 mph (WNW)    
Max Wind Speed 16 mph    
Max Gust Speed 22 mph    
Visibility 10 miles    
Events      
Averages and records for this station are not official NWS values.
T = Trace of Precipitation, MM = Missing Value Source: NWS Daily Summary

Daily Weather History Graph

Daily Weather History Graph

Search for Another Location

Airport or City:

Trip Planner

Search our weather history database for the weather conditions in past years. The results will help you decide how hot, cold, wet, or windy it might be!

Date:

Astronomy

Mar. 11, 2013 Rise Set
Actual Time 7:38 AM CDT 7:26 PM CDT
Civil Twilight 7:12 AM CDT 7:52 PM CDT
Nautical Twilight 6:42 AM CDT 8:22 PM CDT
Astronomical Twilight 6:12 AM CDT 8:52 PM CDT
Moon 7:13 AM CDT (3/11) 7:38 PM CDT (3/11)
Length of Visible Light 12h 39m
Length of Day
11h 47m
Waning Crescent, 0% of the Moon is Illuminated
Mar 11
Waning Crescent
Mar 11
New
Mar 19
First Quarter
Mar 27
Full
Apr 2
Last Quarter

Hourly Weather History & Observations

Time (CDT) Temp. Windchill Dew Point Humidity Pressure Visibility Wind Dir Wind Speed Gust Speed Precip Events Conditions
12:52 AM 30.9 °F 21.2 °F 21.9 °F 69% 30.02 in 10.0 mi NW 12.7 mph - N/A   Overcast
1:52 AM 30.9 °F 21.2 °F 21.9 °F 69% 30.00 in 10.0 mi NW 12.7 mph 21.9 mph N/A   Overcast
2:52 AM 30.9 °F 22.2 °F 21.9 °F 69% 30.01 in 10.0 mi NW 10.4 mph - N/A   Overcast
3:52 AM 30.0 °F 22.4 °F 21.9 °F 72% 29.99 in 10.0 mi WNW 8.1 mph - N/A   Overcast
4:52 AM 28.9 °F 21.1 °F 23.0 °F 78% 30.01 in 8.0 mi WNW 8.1 mph - 0.00 in   Mostly Cloudy
5:06 AM 28.4 °F 19.7 °F 23.0 °F 80% 29.98 in 10.0 mi WNW 9.2 mph - N/A   Mostly Cloudy
5:13 AM 28.4 °F 22.2 °F 23.0 °F 80% 29.98 in 10.0 mi WNW 5.8 mph - N/A   Mostly Cloudy
5:52 AM 30.0 °F 25.2 °F 23.0 °F 75% 30.01 in 10.0 mi WNW 4.6 mph - N/A   Overcast
6:52 AM 30.0 °F 25.2 °F 21.9 °F 72% 30.01 in 10.0 mi WNW 4.6 mph - N/A   Overcast
7:52 AM 30.0 °F 20.5 °F 21.0 °F 69% 30.01 in 10.0 mi NW 11.5 mph - N/A   Overcast
8:25 AM 30.2 °F 21.9 °F 21.2 °F 69% 29.99 in 10.0 mi NW 9.2 mph - N/A   Scattered Clouds
8:52 AM 30.9 °F 22.2 °F 21.9 °F 69% 30.02 in 10.0 mi WNW 10.4 mph - N/A   Scattered Clouds
9:52 AM 32.0 °F 21.2 °F 19.9 °F 61% 30.03 in 10.0 mi NW 16.1 mph - N/A   Clear
10:52 AM 34.0 °F 24.2 °F 21.0 °F 59% 30.04 in 10.0 mi WNW 15.0 mph - N/A   Clear
11:52 AM 37.0 °F 28.9 °F 21.9 °F 54% 30.04 in 10.0 mi NW 12.7 mph - N/A   Clear
12:52 PM 39.9 °F 32.9 °F 21.0 °F 47% 30.02 in 10.0 mi WNW 11.5 mph - N/A   Clear
1:52 PM 43.0 °F 38.2 °F 18.0 °F 37% 30.00 in 10.0 mi WNW 8.1 mph 19.6 mph N/A   Clear
2:52 PM 46.0 °F 41.0 °F 17.1 °F 31% 29.99 in 10.0 mi NW 10.4 mph 20.7 mph N/A   Clear
3:52 PM 48.9 °F - 16.0 °F 27% 29.99 in 10.0 mi WNW 13.8 mph 21.9 mph N/A   Clear
4:52 PM 50.0 °F - 15.1 °F 25% 29.98 in 10.0 mi WNW 11.5 mph - N/A   Clear
5:52 PM 50.0 °F - 12.9 °F 23% 29.98 in 10.0 mi West 8.1 mph - N/A   Clear
6:52 PM 46.9 °F - 12.0 °F 24% 29.99 in 10.0 mi NW 6.9 mph - N/A   Clear
7:52 PM 45.0 °F - 16.0 °F 31% 30.00 in 10.0 mi Calm Calm - N/A   Clear
8:52 PM 39.9 °F 37.8 °F 19.9 °F 45% 30.03 in 10.0 mi West 3.5 mph - N/A   Clear
9:52 PM 39.0 °F - 19.9 °F 46% 30.05 in 10.0 mi Calm Calm - N/A   Clear
10:52 PM 36.0 °F 33.3 °F 21.0 °F 55% 30.05 in 10.0 mi West 3.5 mph - N/A   Clear
11:52 PM 32.0 °F - 21.9 °F 66% 30.05 in 10.0 mi Calm Calm - N/A   Clear